Regional Weather Roundup
Issued by NWS

Home | Current Version | Previous Version | Graphics & Text | Print | Product List | Glossary On
Versions: 1 2 3 4 5 6 7 8 9 10 11 12 13 14 15 16 17 18 19 20 21 22 23 24 25 26 27 28 29 30 31 32 33 34 35 36 37 38 39 40 41 42 43 44 45 46 47 48 49 50
000
ASUS43 KLMK 211410
RWRKY
KENTUCKY REGIONAL WEATHER ROUNDUP
NATIONAL WEATHER SERVICE LOUISVILLE KY
1000 AM EDT SAT APR 21 2018

NOTE "FAIR" INDICATES FEW OR NO CLOUDS BELOW 12,000 FEET
WITH NO SIGNIFICANT WEATHER AND/OR OBSTRUCTIONS TO VISIBILITY.

KYZ001>023-026-027-061>063-070>075-211500-
WESTERN AND SOUTH CENTRAL KENTUCKY

CITY           SKY/WX    TMP DP  RH WIND       PRES   REMARKS
PADUCAH        FAIR      55  33  43 E7        30.32S
HENDERSON      FAIR      54  33  45 E13       30.36F
OWENSBORO      FAIR      55  29  36 E12       30.37S
HOPKINSVILLE   FAIR      54  33  45 SE5       30.33R
BOWLING GREEN  FAIR      54  35  48 NE7       30.35S
GLASGOW        FAIR      55  30  37 E8        30.35F
$$

KYZ024-025-028>034-038-045-046-053-211500-
NORTH CENTRAL KENTUCKY

CITY           SKY/WX    TMP DP  RH WIND       PRES   REMARKS
LOUISVILLE/SDF FAIR      54  28  36 NE9       30.40S
LOUISVILLE/LOU FAIR      53  29  39 E8        30.41S
FORT KNOX      FAIR      53  28  39 NE8       30.39S
$$

KYZ035>037-039>044-047>052-055>060-089>105-211500-
NORTHEAST KENTUCKY

CITY           SKY/WX    TMP DP  RH WIND       PRES   REMARKS
LEXINGTON      FAIR      54  29  38 E10       30.40S
COVINGTON      PTSUNNY   49  23  36 E8        30.44R
FRANKFORT      FAIR      52  26  36 E14       30.40S
$$

KYZ054-064>069-076>088-106>120-211500-
SOUTHEAST KENTUCKY

CITY           SKY/WX    TMP DP  RH WIND       PRES   REMARKS
JACKSON        FAIR      52  26  36 VRB5      30.39S
LONDON         FAIR      53  26  35 E8        30.37S
SOMERSET       FAIR      52  27  37 MISG      30.38F
MIDDLESBORO    FAIR      49  34  57 CALM      30.38F
MONTICELLO     FAIR      54  32  43 VRB6      30.38S
$$





USA.gov is the U.S. government's official web portal to all federal, state and local government web resources and services.